Content
SEND FEEDBACK

Daily
Averages
Monthly
Summary
United States of America

POWERS LAKE, NORTH DAKOTA


Home > North America > United States > North Dakota
Elevation: 2272 feet     Latitude: 48 34N     Longitude: 102 38W

WEATHER
 
SELECT A DAY
Number of Records: 82,693;   Date Range: 12/7/10 - 9/13/14
 
SHARE

PRINT THIS DATA

[ ← Previous Day ]
WEATHER ALMANAC - JANUARY 31, 2013
[ Next Day → ]
[ °C ]   °F
Weather ElementAverageHighLow
Temperature-17.4 °F (3:55 pm)-22 °F (6:35 am)
Dewpoint-24 °F (3:55 pm)-29.2 °F (8:35 am)
Humidity71 %77 % (11:15 pm)64 % (12:15 pm)
Barometer30.16 in30.25 in (11:15 am)30.03 in (12:35 am)
Wind Speed11.8 mph20.7 mph (9:55 am)
Wind Gust26.5 mph (12:35 am)
Weather ElementAverage
Visibility9.2 mi
Wind DirectionW (268.4 °)

Weather ElementTotal
Precipitation---
Heating Degree Days76 (Base 65)
Averaged from 68 records on January 31, 2013
WEATHER CONDITIONS BREAKOUT
WIND DIRECTION BREAKOUT
WEATHER BY HOUR - JANUARY 31, 2013
[ °C ]   °F
Local TimeTemperatureDewpointHumidityBarometerVisibilityWind DirectionWind SpeedGust SpeedPrecipitationEventsConditions
12:35 AM-18.4 °F-23.8 °F76 %30.03 in2.5 miNNW (330°)19.6 mph26.5 mphRainLight Rain
12:55 AM-18.4 °F-25.6 °F70 %30.04 in7.0 miNNW (330°)18.4 mph23.0 mphRainLight Rain
1:15 AM-18.4 °F-25.6 °F70 %30.05 in7.0 miNNW (330°)17.3 mph26.5 mphOvercast
1:35 AM-18.4 °F-25.6 °F70 %30.06 in9.0 miNNW (330°)17.3 mph24.2 mphOvercast
1:55 AM-20.2 °F-25.6 °F76 %30.07 in8.0 miNW (320°)19.6 mph24.2 mphOvercast
2:15 AM-20.2 °F-27.4 °F69 %30.07 in10.0 miNW (320°)13.8 mph21.9 mphOvercast
2:35 AM-20.2 °F-27.4 °F69 %30.09 in10.0 miNW (320°)15.0 mph21.9 mphOvercast
2:55 AM-20.2 °F-27.4 °F69 %30.10 in10.0 miNW (320°)15.0 mph19.6 mphOvercast
3:15 AM-20.2 °F-27.4 °F69 %30.10 in10.0 miNW (320°)16.1 mph20.7 mphSnowLight Snow
3:35 AM-20.2 °F-27.4 °F69 %30.11 in10.0 miNW (320°)15.0 mph20.7 mphOvercast
3:55 AM-20.2 °F-27.4 °F69 %30.12 in10.0 miNW (320°)15.0 mph20.7 mphOvercast
4:15 AM-20.2 °F-27.4 °F69 %30.12 in9.0 miNW (320°)15.0 mph21.9 mphOvercast
4:35 AM-20.2 °F-27.4 °F69 %30.13 in10.0 miNW (310°)11.5 mphOvercast
4:55 AM-20.2 °F-27.4 °F69 %30.14 in10.0 miNW (320°)12.7 mph19.6 mphOvercast
5:15 AM-20.2 °F-27.4 °F69 %30.15 in10.0 miNW (320°)13.8 mph19.6 mphOvercast
5:35 AM-20.2 °F-27.4 °F69 %30.16 in10.0 miWNW (300°)10.4 mph17.3 mphOvercast
6:15 AM-20.2 °F-27.4 °F69 %30.17 in10.0 miNW (310°)11.5 mph18.4 mphOvercast
6:35 AM-22.0 °F-27.4 °F76 %30.18 in10.0 miNW (310°)11.5 mphOvercast
6:55 AM-22.0 °F-27.4 °F76 %30.19 in10.0 miWNW (300°)12.7 mph18.4 mphOvercast
7:15 AM-22.0 °F-27.4 °F76 %30.19 in10.0 miNW (310°)15.0 mphOvercast
7:35 AM-22.0 °F-27.4 °F76 %30.20 in2.0 miNW (310°)17.3 mph25.3 mphHaze
7:55 AM-22.0 °F-27.4 °F76 %30.19 in5.0 miNW (310°)17.3 mph24.2 mphHaze
8:15 AM-22.0 °F-27.4 °F76 %30.20 in3.0 miNW (310°)17.3 mph26.5 mphHaze
8:35 AM-22.0 °F-29.2 °F69 %30.20 in9.0 miNW (310°)15.0 mphOvercast
8:55 AM-22.0 °F-29.2 °F69 %30.22 in10.0 miWNW (300°)13.8 mphOvercast
9:15 AM-22.0 °F-29.2 °F69 %30.22 in10.0 miNW (310°)11.5 mph17.3 mphOvercast
9:35 AM-22.0 °F-29.2 °F69 %30.23 in10.0 miWNW (300°)15.0 mph19.6 mphMostly Cloudy
9:55 AM-20.2 °F-27.4 °F69 %30.23 in1.5 miWNW (300°)20.7 mph25.3 mphSnowLight Snow
10:15 AM-20.2 °F-27.4 °F69 %30.24 in5.0 miWNW (290°)17.3 mphHaze
10:35 AM-20.2 °F-27.4 °F69 %30.24 in10.0 miWNW (300°)18.4 mph24.2 mphMostly Cloudy
10:55 AM-20.2 °F-27.4 °F69 %30.24 in10.0 miWNW (290°)13.8 mphPartly Cloudy
11:15 AM-18.4 °F-25.6 °F70 %30.25 in10.0 miWNW (290°)15.0 mph20.7 mphClear
11:35 AM-18.4 °F-25.6 °F70 %30.25 in10.0 miWNW (290°)16.1 mphClear
11:55 AM-18.4 °F-25.6 °F70 %30.25 in10.0 miWNW (290°)19.6 mphClear
12:15 PM-16.6 °F-25.6 °F64 %30.25 in10.0 miWNW (290°)17.3 mph20.7 mphClear
12:35 PM-16.6 °F-23.8 °F70 %30.25 in10.0 miWNW (290°)15.0 mph18.4 mphClear
12:55 PM-16.6 °F-23.8 °F70 %30.24 in10.0 miWNW (290°)18.4 mphClear
1:15 PM-16.6 °F-23.8 °F70 %30.23 in10.0 miWNW (290°)11.5 mph17.3 mphClear
1:35 PM-14.8 °F-22.0 °F70 %30.23 in10.0 miWNW (290°)16.1 mph19.6 mphClear
1:55 PM-13.0 °F-22.0 °F64 %30.22 in10.0 miWNW (290°)12.7 mphClear
2:15 PM-13.0 °F-22.0 °F64 %30.21 in10.0 miWNW (290°)13.8 mphClear
2:35 PM-13.0 °F-22.0 °F64 %30.21 in10.0 miWNW (290°)13.8 mph17.3 mphClear
2:55 PM-13.0 °F-20.2 °F70 %30.20 in10.0 miWest (280°)12.7 mphClear
3:15 PM-13.0 °F-20.2 °F70 %30.20 in10.0 miWNW (290°)13.8 mphClear
3:35 PM-13.0 °F-20.2 °F70 %30.20 in10.0 miWNW (290°)13.8 mph17.3 mphClear
3:55 PM0.0 °F0.0 °F30.19 in10.0 miWNW (290°)11.5 mphClear
4:15 PM0.0 °F0.0 °F30.18 in10.0 miWNW (290°)10.4 mphClear
4:35 PM-13.0 °F-20.2 °F70 %30.18 in10.0 miWest (280°)12.7 mphClear
4:55 PM-13.0 °F-20.2 °F70 %30.18 in10.0 miWest (280°)9.2 mphClear
5:15 PM-13.0 °F-20.2 °F70 %30.18 in10.0 miWest (280°)6.9 mphClear
5:35 PM-13.0 °F-20.2 °F70 %30.18 in10.0 miWest (260°)9.2 mphClear
5:55 PM-14.8 °F-22.0 °F70 %30.18 in10.0 miWest (280°)8.1 mphClear
6:15 PM-14.8 °F-22.0 °F70 %30.18 in10.0 miWest (270°)4.6 mphClear
6:35 PM-14.8 °F-22.0 °F70 %30.15 in10.0 miWest (270°)5.8 mphClear
7:15 PM-16.6 °F-22.0 °F76 %30.14 in10.0 miWest (280°)4.6 mphClear
7:35 PM-16.6 °F-22.0 °F76 %30.14 in10.0 miWSW (250°)4.6 mphClear
7:55 PM-18.4 °F-23.8 °F76 %30.14 in10.0 miSSW (210°)5.8 mphClear
8:15 PM-18.4 °F-23.8 °F76 %30.13 in10.0 miSSW (210°)4.6 mphClear
8:35 PM-18.4 °F-25.6 °F70 %30.13 in10.0 miSW (220°)4.6 mphClear
8:55 PM-18.4 °F-25.6 °F70 %30.12 in10.0 miSSW (210°)3.5 mphClear
9:15 PM-18.4 °F-25.6 °F70 %30.11 in10.0 miSW (220°)3.5 mphClear
9:35 PM-20.2 °F-25.6 °F76 %30.10 in10.0 miCalmClear
10:15 PM-18.4 °F-23.8 °F76 %30.09 in10.0 miSouth (190°)4.6 mphScattered Clouds
10:35 PM-16.6 °F-22.0 °F76 %30.08 in10.0 miSW (220°)5.8 mphMostly Cloudy
10:55 PM-16.6 °F-22.0 °F76 %30.07 in10.0 miCalmThunderstormOvercast
11:15 PM-14.8 °F-20.2 °F77 %30.07 in10.0 miCalmOvercast
11:35 PM-13.0 °F-18.4 °F77 %30.05 in10.0 miCalmOvercast
11:55 PM-11.2 °F-18.4 °F70 %30.04 in10.0 miCalmOvercast
Hourly data recorded from K08D, located miles away from Powers Lake, North Dakota







STORIES FROM OUR PARTNERS